Regional Weather Roundup
Issued by NWS Little Rock, AR

Home | Current Version | Previous Version | Text Only | Print | Product List | Glossary Off
Versions: 1 2 3 4 5 6 7 8 9 10 11 12 13 14 15 16 17 18 19 20 21 22 23 24 25 26 27 28 29 30 31 32 33 34 35 36 37 38 39 40 41 42 43 44 45 46 47 48 49 50

000
ASUS44 KLZK 111305
RWRLZK

WEATHER ROUNDUP FOR ARKANSAS
NATIONAL WEATHER SERVICE LITTLE ROCK AR
700 AM CST THU FEB 11 2016

NOTE: "FAIR" INDICATES FEW OR NO CLOUDS BELOW 12,000 FEET WITH NO
SIGNIFICANT WEATHER AND/OR OBSTRUCTIONS TO VISIBILITY.

ARZ001-003-010-029-111400-
NORTHWEST ARKANSAS

CITY           SKY/WX    TMP DP  RH WIND       PRES   REMARKS
FAYETTEVILLE   PTCLDY    28  26  92 CALM      30.08R
FORT SMITH     CLOUDY    34  25  69 NE5       30.08R WCI  30
HARRISON       CLOUDY    25  17  72 NE5       30.12R WCI  19
BENTONVILLE    CLOUDY    30  19  64 NE8       30.10R WCI  23
ROGERS         CLOUDY    29  22  75 NE6       30.10R WCI  23
SILOAM SPGS    CLOUDY    34  19  55 NE6       30.09R WCI  29
HIGHFILL       PTCLDY    31  24  75 N8        30.09R WCI  23
SPRINGDALE     CLEAR     32  25  74 NE5       30.10R WCI  27
$$

ARZ004-005-016-111400-
NORTH CENTRAL ARKANSAS

CITY           SKY/WX    TMP DP  RH WIND       PRES   REMARKS
BATESVILLE     CLOUDY    27  14  59 N7        30.15R WCI  19
FLIPPIN        PTCLDY    27  10  50 NE9       30.13R WCI  17
MTN HOME       CLOUDY    23  14  68 NE7       30.13R WCI  15
$$

ARZ040-041-111400-
WEST CENTRAL ARKANSAS

CITY           SKY/WX    TMP DP  RH WIND       PRES   REMARKS
MENA           CLEAR     37  32  81 CALM      30.03R
MOUNT IDA      PTCLDY    34  29  82 CALM      30.01R
$$

ARZ009-017-025-026-028-111400-
NORTHEAST ARKANSAS

CITY           SKY/WX    TMP DP  RH WIND       PRES   REMARKS
JONESBORO      PTCLDY    26  18  71 NE15      30.15R WCI  14
NEWPORT        PTCLDY    26  19  74 N15       30.15R WCI  14
WALNUT RIDGE   PTCLDY    27  16  63 NE13      30.19R WCI  16
BLYTHEVILLE    CLOUDY    28  17  63 E9        30.17R WCI  19
$$

ARZ022-023-033-042-044-111400-
CENTRAL ARKANSAS

CITY           SKY/WX    TMP DP  RH WIND       PRES   REMARKS
LITTLE ROCK    MOCLDY    31  25  78 N6        30.09R WCI  25
N LITTLE ROCK    N/A     31  27  84 NE9       30.09R WCI  23
JACKSONVILLE   PTCLDY    31  23  73 NE8       30.08R WCI  23
SEARCY         MOCLDY    28  21  74 N8        30.12R WCI  20
HOT SPRINGS    PTCLDY    34  29  82 CALM      30.05R
RUSSELLVILLE   MOCLDY    28  24  85 CALM      30.09R
CLINTON        FAIR      25  23  93 CALM      30.12R
$$

ARZ036-111400-
EAST ARKANSAS

CITY           SKY/WX    TMP DP  RH WIND       PRES   REMARKS
WEST MEMPHIS   PTCLDY    29  19  66 NE7       30.10R WCI  22
$$

ARZ050-053-066-070-073-111400-
SOUTHWEST ARKANSAS

CITY           SKY/WX    TMP DP  RH WIND       PRES   REMARKS
ARKADELPHIA    FAIR      28  28 100 CALM      30.06R
CAMDEN         PTCLDY    32  27  80 CALM      30.06R
TEXARKANA      CLEAR     49  35  58 SW6       30.04R
EL DORADO      CLEAR     53  38  56 SW12      30.05R
DE QUEEN       CLEAR     30  29  96 CALM      30.04R FOG
$$

ARZ056-057-069-111400-
SOUTHEAST ARKANSAS

CITY           SKY/WX    TMP DP  RH WIND       PRES   REMARKS
PINE BLUFF     CLEAR     32  29  88 N3        30.06R
STUTTGART      CLOUDY    30  27  86 N8        30.08R WCI  23
MONTICELLO     CLEAR     41  34  76 CALM      30.06R

$$





USA.gov is the U.S. government's official web portal to all federal, state and local government web resources and services.